Theta_e
333 334 333 334 334 333 333 334 335 335 333 332 332 331 330 330 331 331 331 332 330 328 327 327 326 324 329 330 332 332 331 332 329 328 328 327 328 326 326 325 322 320 323
333 334 332 334 333 335 333 334 334 335 333 332 331 331 330 329 330 331 331 331 330 328 327 328 326 329 330 330 329 327 328 330 327 326 328 327 325 324 323 323 323 324 322
333 332 334 334 335 334 334 333 333 333 333 331 331 331 331 331 330 331 331 331 331 328 327 326 330 328 331 330 329 328 328 327 326 326 326 325 324 323 324 323 323 323 323
333 334 334 333 334 335 333 333 333 333 333 331 331 331 330 331 331 331 332 331 332 328 330 332 332 328 330 328 328 330 328 326 325 325 324 324 323 322 322 321 320 320 320
332 334 333 333 331 334 334 334 333 333 333 332 331 331 330 330 331 331 331 331 332 332 332 333 331 332 330 331 331 329 327 326 325 325 324 323 322 321 320 319 318 317 316
331 334 332 333 332 332 334 334 332 332 332 332 331 331 331 329 330 330 330 329 329 329 330 330 330 330 330 331 330 328 327 325 325 325 324 323 322 320 319 319 317 317 317
331 334 333 332 330 331 333 334 332 332 331 331 330 331 330 326 328 330 329 330 330 328 329 331 330 329 330 330 329 326 326 325 325 324 324 323 322 320 319 318 318 317 316
331 331 332 333 331 332 332 334 334 333 332 331 331 331 327 325 326 328 330 329 329 329 331 330 330 330 329 329 328 326 325 325 325 324 324 323 322 321 320 319 318 318 317
330 331 331 332 330 331 334 335 333 331 330 331 330 329 325 324 327 330 331 329 328 329 329 328 327 327 327 328 327 325 326 325 325 325 324 324 323 323 321 319 323 323 321
329 330 330 332 331 330 331 334 335 330 331 330 330 328 326 326 327 328 328 327 325 326 327 326 324 325 326 325 326 325 324 325 325 325 324 324 324 324 322 324 323 321 320
329 330 330 332 331 330 329 332 332 331 331 330 330 328 327 326 328 328 327 327 326 326 324 324 325 325 326 326 326 326 325 325 325 325 324 325 324 324 321 324 324 323 321
328 329 331 332 332 331 330 331 332 333 330 329 330 328 327 327 328 327 326 326 326 326 324 323 325 325 326 326 327 326 326 325 325 325 325 326 326 324 321 325 325 326 325
328 329 331 335 333 333 330 330 334 333 330 330 330 330 328 328 327 326 325 327 325 326 323 322 322 325 325 326 328 326 327 326 327 327 327 327 327 326 325 327 326 325 323
329 331 331 333 335 333 331 329 329 334 333 331 331 330 329 328 328 327 325 326 327 326 325 321 322 324 324 326 326 327 328 328 327 327 327 328 328 326 328 328 326 322 320
329 331 331 333 335 334 331 329 327 326 333 333 332 331 330 329 329 328 324 327 327 326 323 321 323 323 322 323 324 324 325 327 328 327 327 326 326 326 326 324 322 318 316
329 330 330 330 331 334 332 328 327 325 322 330 334 332 330 329 329 328 326 328 329 328 326 326 327 325 323 322 322 324 327 327 326 327 327 325 324 323 322 321 319 317 317
330 329 329 330 329 333 334 332 329 325 324 320 325 333 331 330 329 328 327 327 328 328 330 328 327 327 326 325 325 325 325 325 325 324 322 321 319 318 319 318 317 319 318
330 330 329 329 328 329 332 334 332 330 328 323 319 323 328 331 330 328 328 328 328 329 329 329 329 328 326 325 325 326 325 325 322 323 321 319 318 319 319 320 320 320 320
331 330 330 328 329 327 330 330 332 332 331 329 322 320 326 329 329 328 328 328 328 329 329 331 331 331 326 325 324 324 324 325 325 323 323 323 321 321 320 320 320 320 320
331 330 329 329 329 327 327 328 328 331 331 330 326 322 326 327 326 326 327 328 329 329 329 329 331 331 328 326 325 323 323 323 324 323 322 322 322 322 321 321 320 319 319
332 330 329 331 328 328 327 328 327 327 329 329 329 326 320 322 324 326 326 327 329 330 330 330 330 329 327 328 326 324 322 322 323 324 323 323 323 323 323 322 321 320 318
333 331 330 328 331 329 328 327 327 327 326 326 326 327 324 320 320 321 322 324 325 327 326 327 327 326 325 324 324 324 324 323 323 323 323 324 324 323 323 323 322 321 320
334 334 332 330 329 331 329 328 327 327 326 325 325 325 323 323 322 321 321 320 320 320 321 321 321 322 322 322 321 323 324 324 323 323 323 323 323 323 323 323 322 321 320
334 335 335 332 330 331 331 329 327 326 326 326 326 325 323 324 325 323 322 323 323 323 321 320 319 320 323 323 321 321 322 322 322 322 322 323 323 322 322 322 322 321 320
335 335 336 335 332 330 332 330 329 327 325 325 326 326 324 325 326 326 325 323 323 323 325 325 325 324 321 322 324 323 322 320 320 320 320 321 321 322 321 320 320 320 318
332 335 334 336 335 333 331 333 330 329 328 325 325 326 327 326 326 327 326 325 324 323 323 324 325 325 325 324 322 323 323 323 321 319 318 318 318 319 320 320 319 319 315
Wind_Speed
14 11 9 8 7 4 4 3 3 3 7 9 9 8 7 8 8 5 3 4 6 5 3 5 5 5 2 3 11 14 14 14 9 9 15 23 34 36 37 43 43 40 37
14 15 8 13 7 6 5 4 3 3 6 10 10 8 7 8 7 4 4 6 7 6 5 5 4 4 6 9 13 14 15 14 18 11 15 24 32 36 38 39 39 37 36
15 14 9 11 7 7 5 4 4 3 6 11 10 10 9 7 6 4 5 5 7 7 5 8 6 8 10 12 12 14 16 20 22 19 16 25 30 37 35 39 37 35 33
17 17 13 14 8 8 7 5 5 5 7 12 10 11 10 8 7 6 8 7 6 6 5 4 6 6 9 11 9 10 15 23 23 24 27 25 29 31 37 35 32 33 32
14 20 18 15 9 10 8 7 5 8 7 11 13 10 8 11 10 8 8 9 9 7 7 9 6 9 8 11 16 20 27 24 24 26 22 28 30 29 27 29 30 29 24
14 20 17 15 10 14 10 9 8 9 9 9 10 8 11 13 11 9 10 7 6 6 3 7 8 8 10 13 16 19 29 31 26 23 23 24 20 25 31 30 32 26 11
14 23 18 20 10 7 13 11 11 11 10 10 10 8 8 10 13 12 10 10 10 8 8 8 12 12 14 18 20 22 28 31 31 32 29 25 31 33 32 27 26 22 16
15 15 17 21 14 11 13 12 12 12 12 11 10 12 9 13 13 12 11 9 11 10 9 10 12 15 15 19 23 29 29 29 32 32 35 36 37 36 36 37 34 22 22
16 16 15 20 15 17 17 14 11 13 10 12 13 10 14 14 12 13 12 14 14 14 12 9 12 13 14 20 26 29 27 28 31 33 31 30 30 31 34 34 19 22 16
18 17 15 20 17 18 14 14 12 12 14 14 13 12 14 15 11 11 11 13 15 16 16 15 15 15 15 20 26 29 27 31 32 32 30 28 29 24 32 21 25 21 19
19 18 16 22 20 22 15 12 13 15 14 15 15 14 14 13 10 8 9 12 16 16 18 18 16 16 16 21 22 26 29 36 34 34 32 32 27 24 30 21 21 12 23
20 20 18 25 19 21 16 12 16 16 15 17 18 18 14 12 9 9 12 15 15 20 20 17 18 17 18 21 19 24 30 34 31 29 28 26 24 24 28 20 13 13 14
21 21 20 18 24 23 18 13 17 16 18 15 16 15 14 13 12 12 16 14 12 21 17 16 16 16 15 22 24 25 27 27 25 25 22 21 23 22 20 17 12 10 7
22 22 23 18 25 21 18 15 15 18 17 18 16 17 16 15 14 12 20 12 11 14 13 15 16 15 14 23 25 24 22 22 23 22 21 19 19 19 22 19 13 11 9
23 23 23 20 20 22 20 17 17 13 20 20 22 22 21 18 19 19 23 14 15 17 16 18 13 12 15 22 19 17 14 23 24 23 23 20 22 23 21 16 13 13 9
23 23 23 21 20 20 18 16 8 17 8 15 20 25 23 23 23 24 21 20 19 20 17 15 14 16 16 16 17 12 11 15 16 23 24 22 18 17 17 17 15 17 16
25 24 24 22 24 19 19 19 13 13 12 12 14 20 23 27 28 29 25 22 18 23 16 17 17 20 21 21 20 17 15 17 15 15 17 18 17 18 19 21 22 22 21
28 27 24 23 25 21 21 19 20 16 14 12 11 14 15 21 29 32 30 24 17 21 19 18 17 18 21 24 24 24 23 23 24 23 23 24 24 24 25 24 24 23 22
31 26 26 27 23 25 23 21 20 23 20 17 17 17 20 24 25 29 33 26 21 21 21 19 22 19 24 21 20 22 23 25 29 27 23 25 27 26 25 24 23 24 23
32 28 31 25 21 27 22 22 21 20 24 23 22 21 26 27 27 29 31 26 23 23 24 24 22 22 26 27 25 25 24 25 27 30 29 26 25 26 26 25 26 24 25
30 31 32 22 25 24 24 23 22 21 22 24 25 29 35 30 23 25 28 28 26 24 25 25 25 23 19 21 26 25 26 25 25 26 26 27 27 27 26 26 24 26 25
29 30 29 30 22 23 25 23 23 22 21 23 25 32 40 38 29 26 27 29 31 30 26 27 28 28 27 24 24 27 26 26 26 27 27 28 28 27 26 27 27 24 22
29 28 29 30 28 23 28 24 23 24 23 23 23 26 45 33 32 31 31 31 32 32 32 31 28 27 28 29 32 30 28 29 28 29 30 31 30 28 28 28 27 24 23
29 27 27 30 31 26 25 27 25 26 25 24 24 24 37 35 32 33 33 32 32 34 34 35 37 33 27 28 30 30 33 33 28 27 28 30 30 28 29 26 24 25 25
25 27 25 28 31 33 23 28 27 25 27 26 25 25 33 36 35 33 32 33 32 33 34 35 35 35 38 38 30 28 28 31 33 32 27 25 27 27 29 29 27 23 24
18 18 24 21 27 29 33 23 29 29 26 29 28 28 27 35 35 34 34 33 31 31 34 33 35 37 35 36 39 37 32 30 31 33 34 31 25 24 29 28 24 25 30
Wind_Direction
152 161 148 156 164 159 152 136 135 160 151 147 155 159 157 174 174 168 164 158 128 112 228 237 247 248 305 154 114 106 88 102 111 100 123 142 140 135 140 144 145 146 146
166 146 154 146 122 129 124 122 128 144 149 153 145 147 159 154 163 179 195 151 136 168 204 205 158 131 100 124 110 103 98 123 123 117 139 141 142 136 133 132 139 138 135
163 149 149 117 134 141 124 121 125 136 137 158 147 149 144 142 143 154 141 125 135 160 162 167 140 121 109 118 109 107 111 124 130 129 126 131 133 137 129 129 131 135 135
162 149 131 133 132 131 128 130 130 122 113 143 150 149 133 153 151 144 130 120 120 117 147 149 141 138 116 138 145 140 149 131 126 123 124 122 117 116 116 118 112 124 128
165 142 129 134 134 137 134 130 126 119 117 115 137 135 129 114 121 109 116 111 108 95 88 87 103 156 182 165 159 146 140 131 123 121 117 119 116 121 119 118 115 127 135
165 138 143 147 132 141 135 132 129 129 122 122 130 122 99 107 121 116 115 108 115 122 99 83 76 72 56 129 150 152 152 142 134 127 125 123 121 121 128 129 130 134 129
172 149 160 148 142 162 133 133 131 125 129 129 131 130 109 117 141 114 110 107 124 119 121 115 105 97 106 119 131 137 142 141 138 136 130 133 129 141 140 140 144 146 152
175 167 154 148 141 143 122 130 137 136 138 136 132 124 115 116 120 123 113 115 114 117 105 112 122 120 121 127 135 137 132 137 140 138 137 142 148 157 159 159 158 153 151
176 165 167 148 144 136 123 133 148 142 143 136 129 126 124 125 122 117 114 107 110 91 109 122 136 139 142 142 139 143 143 139 152 160 154 156 158 163 160 151 160 145 145
174 168 171 149 147 128 127 145 152 161 146 143 126 128 131 128 128 130 121 119 118 117 111 104 114 118 129 146 142 142 133 144 151 151 151 154 162 165 162 158 153 152 153
169 164 167 135 132 129 133 136 135 141 140 140 136 129 132 143 139 148 131 126 135 129 121 111 117 122 125 143 144 144 144 154 153 153 153 161 171 170 176 171 179 181 182
165 162 161 141 142 136 142 150 132 131 132 147 136 130 143 141 131 139 136 132 143 144 133 124 126 121 118 134 140 148 149 147 143 148 154 161 171 182 187 192 230 231 216
165 159 155 155 146 147 148 160 136 142 138 148 144 141 147 150 141 139 143 116 129 145 133 137 133 127 120 135 138 143 140 151 146 156 165 175 183 185 188 198 202 198 185
161 155 155 166 149 154 156 176 160 165 160 161 161 152 156 159 158 153 161 146 136 153 147 148 142 139 136 145 147 147 147 153 165 170 177 186 188 190 187 194 195 192 169
162 158 159 173 169 162 167 184 171 187 177 171 172 163 164 172 173 168 169 165 153 151 143 142 134 139 152 162 170 170 166 173 175 177 180 176 174 174 185 201 201 191 188
165 166 168 177 189 172 168 168 159 179 158 172 168 172 177 175 178 176 174 170 171 162 156 168 174 156 156 169 184 210 177 173 177 181 177 170 174 186 189 190 197 201 203
174 174 177 179 182 188 182 170 145 157 156 139 143 180 177 181 183 181 183 188 181 179 185 191 192 182 178 182 192 197 194 200 189 192 188 190 194 198 196 201 205 209 210
179 181 183 191 178 196 191 187 180 171 172 163 158 152 170 183 185 187 186 190 190 198 209 212 220 207 198 193 197 199 199 200 199 203 204 201 200 202 205 203 205 213 213
181 184 190 191 185 193 189 196 194 181 186 187 169 166 164 168 183 192 193 193 195 202 214 221 223 226 200 212 210 211 209 205 198 202 211 203 204 207 211 211 213 217 219
185 189 193 187 201 186 198 193 202 190 182 187 177 173 175 176 178 185 191 198 204 206 210 224 231 238 206 205 214 216 216 215 210 207 209 215 216 216 218 221 220 220 220
184 192 191 205 200 190 196 196 199 203 188 190 190 184 192 183 187 189 195 204 213 213 212 218 231 243 240 216 213 218 220 223 221 212 208 214 217 223 224 227 230 226 223
187 187 192 205 202 202 197 205 198 203 206 196 196 188 193 191 195 200 205 208 212 217 218 218 221 226 234 233 224 223 224 224 224 221 219 219 223 226 230 231 232 234 227
187 191 193 200 217 209 196 203 202 204 207 208 202 183 185 192 198 202 206 212 216 221 227 231 234 232 229 228 228 229 225 225 227 226 224 223 223 224 227 232 233 229 231
198 201 196 196 203 221 203 202 205 205 209 208 206 189 187 194 199 204 208 212 216 218 220 225 232 239 240 235 234 232 230 230 230 233 233 229 223 224 227 232 233 226 226
203 208 210 195 200 208 223 200 206 209 208 213 209 203 193 195 202 206 208 212 216 219 221 221 224 230 235 239 242 239 235 232 230 230 233 234 230 226 226 228 229 221 206
266 213 221 216 197 203 212 223 204 209 211 211 216 212 201 195 202 207 210 213 216 222 224 226 226 228 230 233 237 242 243 242 238 236 229 231 233 237 228 225 222 209 188